Location: Carabito
(9.8355°N, 67.9249°W)
Time: 11:50:17
(UTC+00:00)

Cosmos 1943 Rocket - Pass Details

Date: 23 May 2024
Orbit: 810 x 844 km, 71.0° (Epoch: 20 June)

Event Time Altitude Azimuth Distance (km) Brightness Sun altitude
Rises 00:43:52 0° 352° (N) 3,377 5.8 -27.0°
Reaches altitude 10° 00:46:22 10° 357° (N) 2,439 5.0 -27.5°
Enters shadow 00:50:22 42° 27° (NNE) 1,168 2.9 -28.3°
